Skip Page Navigation
NASA JPL Caltech
NASA Logo - Jet Propulsion Laboratory + View the NASA Portal
+ Near-Earth Object (NEO) Program
Search JPL
JPL Home Earth Solar System Stars & Galaxies Technology
JPL Solar System Dynamics
BODIES ORBITS EPHEMERIDES TOOLS PHYSICAL DATA DISCOVERY FAQ SITE MAP
JPL Small-Body Database Browser
Search: [ help ]  
17702 Krystofharant (1997 JD)
Classification: Main-belt Asteroid          SPK-ID: 2017702
Ephemeris | Orbit Diagram | Orbital Elements | Physical Parameters | Discovery Circumstances | Close-Approach Data ]

[ show orbit diagram ]
Orbital Elements at Epoch 2456800.5 (2014-May-23.0) TDB
Reference: JPL 3 (heliocentric ecliptic J2000)
 Element Value Uncertainty (1-sigma)   Units 
e .07049264341846463 6.6522e-08  
a 3.073518752761524 4.0692e-08 AU
q 2.856858291283142 2.0462e-07 AU
i 8.723450951012602 8.365e-06 deg
node 226.7547884344359 5.1441e-05 deg
peri 240.7220226842774 9.2367e-05 deg
M 135.7682979917323 7.2062e-05 deg
tp 2456058.253598652720
(2012-May-10.75359865)
0.00039426 JED
period 1968.122959759669
5.39
3.9086e-05
1.07e-07
d
yr
n .1829154007958732 3.6326e-09 deg/d
Q 3.290179214239907 4.356e-08 AU
  Orbit Determination Parameters
   # obs. used (total)      698  
   data-arc span      5903 days (16.16 yr)  
   first obs. used      1997-04-11  
   last obs. used      2013-06-09  
   planetary ephem.      DE431  
   SB-pert. ephem.      SB431-BIG16  
   condition code      0  
   fit RMS      .57074  
   data source      ORB  
   producer      Otto Matic  
   solution date      2013-Aug-05 18:43:16  

Additional Information
 Earth MOID = 1.88579 AU 
 T_jup = 3.209 
[ show covariance matrix ]

Ephemeris | Orbit Diagram | Orbital Elements | Physical Parameters | Discovery Circumstances | Close-Approach Data ]

Physical Parameter Table
Parameter Symbol Value Units Sigma Reference Notes
absolute magnitude H 13.4 mag n/a MPO263505  

17702 Krystofharant           Discovered 1997 May 1 by P. Pravec at Ondrejov.
Krystof Harant z Polzic a Bezdruzic (1564-1621), a man of wide interests, wrote poetry and a travelogue that he also illustrated and was renowned for his musical compositions. During 1600-1612 he was a valet and counsel of Rudolph II. He took part in the struggle against the Hapsburg king and was executed.
NOTE: some special characters may not display properly (any characters within {} are an attempt to place the proper accent above a character)
Reference: 20010309/MPCPages.arcLast Updated: 2009-05-11

[ show close-approach data ]
Ephemeris | Orbit Diagram | Orbital Elements | Physical Parameters | Discovery Circumstances | Close-Approach Data ]
ABOUT SSD CREDITS/AWARDS PRIVACY/COPYRIGHT GLOSSARY LINKS
FirstGov 2014-Apr-24 05:53 UT
(server date/time)  
NASA Home Page
Site Manager:   Donald K. Yeomans
Webmaster  Alan B. Chamberlin